Regional Weather Roundup
Issued by NWS

Home | Current Version | Previous Version | Text Only | Print | Product List | Glossary On
Versions: 1 2 3 4 5 6 7 8 9 10 11 12 13 14 15 16 17 18 19 20 21 22 23 24 25 26 27 28
000
ASUS44 KLIX 212213
RWRLA
LOUISIANA WEATHER ROUNDUP
NATIONAL WEATHER SERVICE NEW ORLEANS LA
400 PM CST SAT JAN 21 2017

NOTE: "FAIR" INDICATES FEW OR NO CLOUDS BELOW 12,000 FEET WITH NO
      SIGNIFICANT WEATHER AND/OR OBSTRUCTIONS TO VISIBILITY.
      SKY/WX - SKY CONDITION AND SIGNIFICANT WEATHER.
      TMP - AIR TEMPERATURE.    DP   - DEWPOINT TEMPERATURE.
      RH  - RELATIVE HUMIDITY.  PRES - PRESSURE.
      HX  - HEAT INDEX.         WCI  - WIND CHILL INDEX.

*  THESE STATIONS ARE NOT NWS OR FAA STATIONS AND ARE NOT UNDER
   NWS QUALITY CONTROL.

LAZ040-048-061>063-065-066-069-212300-
SOUTHEAST LOUISIANA

CITY           SKY/WX    TMP DP  RH WIND       PRES   REMARKS
N.O. AUDUBON   NOT AVBL
N.O. INTL ARPT MOSUNNY   77  69  76 S15       29.54S
N.O. LAKEFRONT SUNNY     72  66  81 E7        29.55F
N.O. DOWNTOWN*   N/A     78  69  73 S10G17    29.55F
RESERVE*       CLOUDY    76  67  75 NE5       29.54S
SLIDELL        CLOUDY    71  63  75 E9        29.56F
BATON ROUGE    PTSUNNY   74  64  71 E9        29.52F
BOOTHVILLE     CLOUDY    72  70  93 S15       29.59F
BELLE CHASSE   PTSUNNY   76  70  82 S14       29.55F
BOGALUSA*      MOCLDY    75  63  64 SE6       29.58F
GALLIANO*      CLOUDY    76  70  83 S16G22    29.56F
NEW ROADS*     MOCLDY    72  64  77 SE9       29.51F
GONZALES*      CLOUDY    75  67  74 SE3       29.52F
HAMMOND*       CLOUDY    72  61  68 SE8       29.55F
HOUMA*         CLOUDY    75  72  88 S8        29.54F FOG
PORT FOURCHON* PTCLDY    73  72  94 S12       29.56F FOG

$$

LAZ041-044-053-054-212300-
SOUTHWEST LOUISIANA

CITY           SKY/WX    TMP DP  RH WIND       PRES   REMARKS
LAKE CHARLES   PTSUNNY   73  69  87 S9        29.47F FOG
LAFAYETTE      PTSUNNY   77  68  73 S10G21    29.50F
PATTERSON      PTSUNNY   76  70  82 S12       29.53F
SALT POINT     NOT AVBL
NEW IBERIA     PTSUNNY   74  68  81 S9        29.52S HAZE
CHENAULT AIRPK NOT AVBL

$$

LAZ027-028-212300-
CENTRAL LOUISIANA

CITY           SKY/WX    TMP DP  RH WIND       PRES   REMARKS
FORT POLK      CLOUDY    72  66  82 SE10      29.44F
ALEXANDRIA INT CLOUDY    70  63  78 SE9       29.46F
ALEXANDRIA     CLOUDY    71  62  73 SE8       29.47F

$$

LAZ001-002-212300-
NORTHWEST LOUISIANA

CITY           SKY/WX    TMP DP  RH WIND       PRES   REMARKS
SHREVEPORT     CLOUDY    72  64  76 S10       29.41S
BARKSDALE AFB  PTSUNNY   69  63  82 SE8       29.42F
DTN SHREVEPORT CLOUDY    70  62  76 SE10      29.42F THUNDER

$$

LAZ014-016-212300-
NORTHEAST LOUISIANA

CITY           SKY/WX    TMP DP  RH WIND       PRES   REMARKS
MONROE         CLOUDY    70  60  70 SE7       29.50F
TALLULAH       CLOUDY    70  61  73 SE7       29.52F

$$





USA.gov is the U.S. government's official web portal to all federal, state and local government web resources and services.